User: anonymous   Login
Location: Oakhurst
(33.6448°N, 111.9543°W)
Time: 00:46:54
(UTC+00:00)
Language:

LO-87 - Orbit

View from above orbital plane
View from above orbital plane
View from above satellite
View from above satellite

Ground track
Ground track

The orbit data is extracted from the following two-line orbital elements,

1 41557U 16033B   21206.54379569  .00002881  00000-0  10269-3 0  9994
2 41557  97.3955 300.2736 0014587  99.5126  26.5258 15.29636402287351
Epoch (UTC): 25 July 2021 13:03:03
Eccentricity: 0.0014587
inclination: 97.3955°
perigee height: 467 km
apogee height: 487 km
right ascension of ascending node: 300.2736°
argument of perigee: 99.5126°
revolutions per day: 15.29636402
mean anomaly at epoch: 26.5258°
orbit number at epoch: 28735

The dashed part of the orbit path shows where the satellite is in the earth's shadow,  

DLR